| time (UTC) | temp F | wind direction | speed knots | gust knots | rain 1hr in | rain 24hr in | rain mn in | humidity % | barometer mb |
| 20260510072625 | 73 | 132 | 5.2 | 8.7 | 0.00 | 0.01 | 0.00 | 81 | 1011.4 |
| 20260510072125 | 73 | 126 | 5.2 | 10.4 | 0.00 | 0.01 | 0.00 | 81 | 1011.4 |
| 20260510071625 | 73 | 137 | 5.2 | 10.4 | 0.00 | 0.01 | 0.00 | 81 | 1011.5 |
| 20260510071126 | 73 | 115 | 5.2 | 9.6 | 0.00 | 0.01 | 0.00 | 81 | 1011.5 |
| 20260510070623 | 73 | 115 | 5.2 | 9.6 | 0.00 | 0.01 | 0.00 | 81 | 1011.5 |
| 20260510070123 | 73 | 142 | 4.3 | 8.7 | 0.00 | 0.01 | 0.00 | 81 | 1011.4 |
| 20260510065623 | 73 | 99 | 4.3 | 7.8 | 0.00 | 0.01 | 0.00 | 80 | 1011.5 |
| 20260510065130 | 73 | 128 | 4.3 | 7.8 | 0.00 | 0.01 | 0.00 | 80 | 1011.5 |
| 20260510064622 | 73 | 100 | 5.2 | 8.7 | 0.00 | 0.01 | 0.00 | 79 | 1011.6 |
| 20260510064120 | 74 | 129 | 5.2 | 8.7 | 0.00 | 0.01 | 0.00 | 79 | 1011.7 |
| 20260510063622 | 74 | 148 | 5.2 | 9.6 | 0.00 | 0.01 | 0.00 | 79 | 1011.5 |
| 20260510063116 | 74 | 116 | 5.2 | 9.6 | 0.00 | 0.01 | 0.00 | 79 | 1011.4 |
| 20260510062618 | 74 | 126 | 5.2 | 8.7 | 0.00 | 0.01 | 0.00 | 79 | 1011.3 |
| 20260510062401 | 74 | 122 | 5.2 | 8.7 | 0.00 | 0.01 | 0.00 | 79 | 1011.4 |
| 20260510061615 | 74 | 111 | 5.2 | 8.7 | 0.00 | 0.01 | 0.00 | 79 | 1011.3 |
| 20260510061110 | 74 | 126 | 5.2 | 8.7 | 0.00 | 0.01 | 0.00 | 79 | 1011.3 |
| 20260510060607 | 74 | 134 | 4.3 | 7.8 | 0.00 | 0.01 | 0.00 | 80 | 1011.3 |
| 20260510060107 | 74 | 132 | 4.3 | 7.8 | 0.00 | 0.01 | 0.00 | 80 | 1011.2 |
| 20260510055607 | 74 | 110 | 3.5 | 7.0 | 0.00 | 0.01 | 0.00 | 81 | 1011.1 |
| 20260510055106 | 74 | 138 | 4.3 | 7.8 | 0.00 | 0.01 | 0.00 | 81 | 1011.2 |
| 20260510054608 | 74 | 119 | 4.3 | 7.8 | 0.00 | 0.01 | 0.00 | 81 | 1011.3 |
| 20260510054104 | 74 | 139 | 3.5 | 7.0 | 0.00 | 0.01 | 0.00 | 81 | 1011.2 |
| 20260510053605 | 75 | 135 | 3.5 | 7.0 | 0.00 | 0.01 | 0.00 | 81 | 1011.3 |
| 20260510053346 | 75 | 138 | 2.6 | 7.0 | 0.00 | 0.01 | 0.00 | 81 | 1011.3 |
| 20260510052600 | 75 | 118 | 3.5 | 7.0 | 0.00 | 0.01 | 0.00 | 81 | 1011.4 |
| 20260510052055 | 75 | 127 | 4.3 | 7.0 | 0.00 | 0.01 | 0.00 | 80 | 1011.3 |
| 20260510051551 | 75 | 121 | 3.5 | 7.0 | 0.00 | 0.01 | 0.00 | 80 | 1011.3 |
| 20260510051047 | 76 | 118 | 3.5 | 7.0 | 0.00 | 0.01 | 0.00 | 79 | 1011.4 |
| 20260510050548 | 76 | 129 | 3.5 | 7.8 | 0.00 | 0.01 | 0.00 | 79 | 1011.4 |
| 20260510050047 | 76 | 135 | 3.5 | 7.8 | 0.00 | 0.01 | 0.00 | 80 | 1011.3 |
| 20260510050039 | 76 | 129 | 3.5 | 7.0 | 0.00 | 0.01 | 0.01 | 80 | 1011.4 |
| 20260510045046 | 76 | 136 | 3.5 | 7.0 | 0.00 | 0.01 | 0.01 | 80 | 1011.3 |
| 20260510044544 | 76 | 140 | 3.5 | 6.1 | 0.00 | 0.01 | 0.01 | 81 | 1011.3 |
| 20260510044042 | 76 | 117 | 3.5 | 6.1 | 0.00 | 0.01 | 0.01 | 82 | 1011.3 |
| 20260510043542 | 76 | 126 | 3.5 | 6.1 | 0.00 | 0.01 | 0.01 | 81 | 1011.3 |
| 20260510043038 | 76 | 133 | 2.6 | 4.3 | 0.00 | 0.01 | 0.01 | 81 | 1011.3 |
| 20260510042821 | 76 | 126 | 2.6 | 4.3 | 0.00 | 0.01 | 0.01 | 81 | 1011.3 |
| 20260510042037 | 76 | 129 | 2.6 | 4.3 | 0.00 | 0.01 | 0.01 | 81 | 1011.2 |
| 20260510041532 | 76 | 124 | 2.6 | 4.3 | 0.00 | 0.01 | 0.01 | 81 | 1011.2 |
| 20260510041310 | 76 | 128 | 2.6 | 3.5 | 0.00 | 0.01 | 0.01 | 81 | 1011.2 |
| 20260510040800 | 76 | 126 | 2.6 | 4.3 | 0.00 | 0.01 | 0.01 | 81 | 1011.2 |
| 20260510040713 | 76 | 126 | 2.6 | 4.3 | 0.00 | 0.01 | 0.01 | 81 | 1011.2 |
| 20260510034015 | 78 | 134 | 2.6 | 6.1 | 0.00 | 0.01 | 0.01 | 79 | 1011.2 |
| 20260510033516 | 78 | 144 | 2.6 | 6.1 | 0.00 | 0.01 | 0.01 | 78 | 1011.1 |
| 20260510033014 | 78 | 121 | 2.6 | 6.1 | 0.00 | 0.01 | 0.01 | 78 | 1011.1 |
| 20260510032819 | 78 | 143 | 3.5 | 6.1 | 0.00 | 0.01 | 0.01 | 78 | 1010.9 |
| 20260510032149 | 79 | 123 | 3.5 | 6.1 | 0.00 | 0.01 | 0.01 | 78 | 1010.9 |
| 20260510031838 | 79 | 122 | 2.6 | 0.0 | 0.00 | 0.01 | 0.01 | 78 | 1011.2 |
| 20260510031832 | 0 | 126 | 3.5 | 1.7 | 0.00 | 0.01 | 0.01 | 1010.8 | |
| 20260510031825 | 79 | 125 | 3.5 | 7.8 | 0.00 | 0.01 | 0.01 | 78 | 1010.9 |
| 20260510025403 | 79 | 128 | 3.5 | 7.0 | 0.00 | 0.01 | 0.01 | 78 | 1010.8 |
| 20260510025348 | 80 | 105 | 3.5 | 7.0 | 0.00 | 0.01 | 0.01 | 77 | 1010.7 |
| 20260510024402 | 80 | 136 | 3.5 | 7.0 | 0.00 | 0.01 | 0.01 | 77 | 1010.8 |
| 20260510023913 | 80 | 133 | 4.3 | 7.8 | 0.00 | 0.01 | 0.01 | 76 | 1010.4 |
| 20260510023906 | 80 | 133 | 4.3 | 7.0 | 0.00 | 0.01 | 0.01 | 76 | 1010.4 |
| 20260510023120 | 80 | 136 | 4.3 | 7.8 | 0.00 | 0.01 | 0.01 | 75 | 1010.3 |
| 20260510022356 | 80 | 124 | 4.3 | 8.7 | 0.00 | 0.01 | 0.01 | 75 | 1010.2 |
| 20260510021855 | 80 | 144 | 4.3 | 7.8 | 0.00 | 0.01 | 0.01 | 74 | 1010.2 |
| 20260510021349 | 82 | 138 | 2.6 | 6.1 | 0.00 | 0.01 | 0.01 | 71 | 1009.8 |
| 20260510021338 | 81 | 0 | 4.3 | 7.8 | 0.00 | 0.01 | 0.01 | 74 | 1010.4 |
| 20260510021312 | 81 | 130 | 4.3 | 7.8 | 0.00 | 0.01 | 0.01 | 73 | 1010.3 |
| 20260510020725 | 81 | 161 | 3.5 | 7.8 | 0.00 | 0.01 | 0.01 | 73 | 1010.1 |
| 20260510020517 | 81 | 135 | 3.5 | 7.8 | 0.00 | 0.01 | 0.01 | 73 | 1010.2 |
| 20260510020345 | 81 | 161 | 3.5 | 7.8 | 0.00 | 0.01 | 0.01 | 73 | 1010.1 |
| 20260510020149 | 81 | 133 | 3.5 | 7.0 | 0.00 | 0.01 | 0.01 | 73 | 1010.1 |
| 20260510013251 | 82 | 133 | 2.6 | 5.2 | 0.00 | 0.01 | 0.01 | 70 | 1009.7 |
| 20260510012739 | 82 | 141 | 3.5 | 6.1 | 0.00 | 0.01 | 0.01 | 70 | 1010.0 |
| 20260510010553 | 84 | 134 | 3.5 | 7.8 | 0.00 | 0.01 | 0.01 | 66 | 1009.7 |
| 20260510005956 | 84 | 132 | 3.5 | 7.8 | 0.00 | 0.01 | 0.01 | 65 | 1009.8 |
| 20260510004951 | 85 | 153 | 3.5 | 7.0 | 0.00 | 0.01 | 0.01 | 64 | 1009.7 |
| 20260510004453 | 85 | 173 | 3.5 | 7.0 | 0.00 | 0.01 | 0.01 | 63 | 1009.6 |
| 20260510003948 | 86 | 148 | 3.5 | 7.0 | 0.00 | 0.01 | 0.01 | 62 | 1009.6 |
| 20260510003832 | 86 | 126 | 3.5 | 7.8 | 0.00 | 0.01 | 0.01 | 61 | 1009.6 |
| 20260510003826 | 86 | 145 | 3.5 | 7.0 | 0.00 | 0.01 | 0.01 | 61 | 1009.6 |
| 20260510002602 | 87 | 102 | 4.3 | 9.6 | 0.00 | 0.01 | 0.01 | 61 | 1009.5 |
| 20260510002256 | 89 | 154 | 5.2 | 9.6 | 0.00 | 0.01 | 0.01 | 56 | 1009.0 |
| 20260510002205 | 90 | 114 | 6.1 | 9.6 | 0.00 | 0.01 | 0.01 | 52 | 1009.0 |
| 20260510002113 | 90 | 112 | 5.2 | 9.6 | 0.00 | 0.01 | 0.01 | 52 | 1009.0 |
| 20260510002007 | 88 | 129 | 5.2 | 9.6 | 0.00 | 0.01 | 0.01 | 57 | 1009.5 |
| 20260510001115 | 92 | 145 | 5.2 | 9.6 | 0.00 | 0.01 | 0.01 | 47 | 1008.8 |
| 20260510001019 | 92 | 110 | 5.2 | 8.7 | 0.00 | 0.01 | 0.01 | 52 | 1008.8 |
| 20260510000931 | 89 | 106 | 5.2 | 10.4 | 0.00 | 0.01 | 0.01 | 55 | 1009.5 |
| 20260510000917 | 89 | 0 | 5.2 | 10.4 | 0.00 | 0.01 | 0.01 | 56 | 1009.6 |
| 20260510000249 | 94 | 90 | 4.3 | 6.1 | 0.00 | 0.01 | 0.01 | 44 | 1009.3 |
| 20260510000243 | 89 | 124 | 6.1 | 9.6 | 0.00 | 0.01 | 0.01 | 55 | 1009.5 |
| 20260509235927 | 90 | 119 | 5.2 | 9.6 | 0.00 | 0.01 | 0.01 | 56 | 1009.0 |
| 20260509235834 | 90 | 130 | 5.2 | 9.6 | 0.00 | 0.01 | 0.01 | 55 | 1009.0 |
| 20260509235738 | 90 | 140 | 5.2 | 9.6 | 0.00 | 0.01 | 0.01 | 54 | 1009.1 |
| 20260509223645 | 94 | 89 | 5.2 | 9.6 | 0.00 | 0.01 | 0.01 | 45 | 1009.4 |
| 20260509223639 | 93 | 117 | 6.1 | 9.6 | 0.00 | 0.01 | 0.01 | 44 | 1009.4 |
| 20260509221900 | 93 | 73 | 6.1 | 11.3 | 0.00 | 0.01 | 0.01 | 49 | 1008.8 |
| 20260509221352 | 94 | 90 | 5.2 | 11.3 | 0.00 | 0.01 | 0.01 | 45 | 1009.4 |
| 20260509220114 | 93 | 119 | 6.1 | 11.3 | 0.00 | 0.01 | 0.01 | 44 | 1009.2 |
| 20260509215614 | 94 | 148 | 5.2 | 10.4 | 0.00 | 0.01 | 0.01 | 50 | 1009.3 |
| 20260509215112 | 93 | 0 | 5.2 | 10.4 | 0.00 | 0.01 | 0.01 | 48 | 1009.3 |
| 20260509214613 | 92 | 133 | 4.3 | 10.4 | 0.00 | 0.01 | 0.01 | 47 | 1009.3 |
| 20260509214108 | 92 | 140 | 4.3 | 10.4 | 0.00 | 0.01 | 0.01 | 52 | 1009.4 |
| 20260509213730 | 92 | 133 | 8.7 | 13.9 | 0.00 | 0.01 | 0.01 | 47 | 1009.6 |
| 20260509213647 | 93 | 155 | 7.0 | 13.0 | 0.00 | 0.01 | 0.01 | 53 | 1009.6 |
| 20260509212559 | 93 | 150 | 7.8 | 13.9 | 0.00 | 0.01 | 0.01 | 46 | 1009.7 |
| 20260509212101 | 94 | 132 | 7.0 | 13.0 | 0.00 | 0.01 | 0.01 | 53 | 1009.7 |
| 20260509211558 | 95 | 158 | 5.2 | 10.4 | 0.00 | 0.01 | 0.01 | 50 | 1009.7 |
| 20260509211052 | 95 | 144 | 4.3 | 9.6 | 0.00 | 0.01 | 0.01 | 54 | 1009.7 |
| 20260509210548 | 95 | 137 | 5.2 | 9.6 | 0.00 | 0.01 | 0.01 | 50 | 1009.8 |
| 20260509210047 | 95 | 155 | 6.1 | 12.2 | 0.00 | 0.01 | 0.01 | 48 | 1010.1 |
| 20260509205829 | 95 | 81 | 6.1 | 12.2 | 0.00 | 0.01 | 0.01 | 52 | 1010.2 |
| 20260509205044 | 95 | 113 | 6.1 | 11.3 | 0.00 | 0.01 | 0.01 | 47 | 1010.2 |
| 20260509204545 | 94 | 106 | 6.1 | 10.4 | 0.00 | 0.01 | 0.01 | 49 | 1010.1 |
| 20260509204045 | 95 | 102 | 7.0 | 11.3 | 0.00 | 0.01 | 0.01 | 48 | 1010.3 |
| 20260509203544 | 94 | 0 | 7.0 | 11.3 | 0.00 | 0.01 | 0.01 | 46 | 1010.3 |
| 20260509203042 | 95 | 88 | 4.3 | 10.4 | 0.00 | 0.01 | 0.01 | 45 | 1010.4 |
| 20260509202603 | 94 | 23 | 3.5 | 7.0 | 0.00 | 0.01 | 0.01 | 55 | 1010.1 |
| 20260509202549 | 96 | 128 | 3.5 | 7.8 | 0.00 | 0.01 | 0.01 | 52 | 1010.6 |
| 20260509202214 | 93 | 17 | 3.5 | 0.0 | 0.00 | 0.01 | 0.01 | 54 | 1010.1 |
| 20260509200108 | 95 | 309 | 3.5 | 8.7 | 0.00 | 0.01 | 0.01 | 58 | 1010.9 |
| 20260509200050 | 93 | 5 | 4.3 | 9.6 | 0.00 | 0.01 | 0.01 | 58 | 1010.8 |
| 20260509195024 | 94 | 13 | 3.5 | 8.7 | 0.00 | 0.01 | 0.01 | 58 | 1011.0 |
| 20260509194525 | 92 | 50 | 4.3 | 9.6 | 0.00 | 0.01 | 0.01 | 61 | 1010.8 |
| 20260509194024 | 91 | 313 | 4.3 | 9.6 | 0.00 | 0.01 | 0.01 | 60 | 1010.7 |
| 20260509193812 | 90 | 213 | 3.5 | 10.4 | 0.00 | 0.01 | 0.01 | 56 | 1010.7 |
| 20260509193311 | 90 | 277 | 5.2 | 10.4 | 0.00 | 0.01 | 0.01 | 59 | 1010.8 |
| 20260509192519 | 90 | 343 | 5.2 | 10.4 | 0.00 | 0.01 | 0.01 | 60 | 1010.7 |
| 20260509192020 | 90 | 312 | 6.1 | 13.9 | 0.00 | 0.01 | 0.01 | 62 | 1010.9 |
| 20260509191519 | 90 | 302 | 7.0 | 13.9 | 0.00 | 0.01 | 0.01 | 61 | 1010.9 |
| 20260509191014 | 90 | 296 | 5.2 | 13.0 | 0.00 | 0.01 | 0.01 | 61 | 1010.8 |
| 20260509190513 | 90 | 313 | 5.2 | 11.3 | 0.00 | 0.01 | 0.01 | 63 | 1010.9 |
| 20260509190009 | 89 | 5 | 4.3 | 9.6 | 0.00 | 0.01 | 0.01 | 63 | 1010.9 |
| 20260509185750 | 89 | 298 | 4.3 | 9.6 | 0.00 | 0.01 | 0.01 | 64 | 1011.0 |
| 20260509185003 | 89 | 287 | 5.2 | 10.4 | 0.00 | 0.01 | 0.01 | 66 | 1011.3 |
| 20260509184502 | 89 | 294 | 4.3 | 10.4 | 0.00 | 0.01 | 0.01 | 63 | 1011.4 |
| 20260509184000 | 89 | 324 | 2.6 | 7.0 | 0.00 | 0.01 | 0.01 | 66 | 1011.4 |
| 20260509183503 | 89 | 219 | 3.5 | 7.0 | 0.00 | 0.01 | 0.01 | 65 | 1011.4 |
| 20260509183254 | 88 | 297 | 3.5 | 9.6 | 0.00 | 0.01 | 0.01 | 66 | 1011.3 |
| 20260509182501 | 87 | 217 | 5.2 | 11.3 | 0.00 | 0.01 | 0.01 | 66 | 1011.4 |
| 20260509182259 | 87 | 330 | 4.3 | 11.3 | 0.00 | 0.01 | 0.01 | 65 | 1011.6 |
| 20260509181503 | 87 | 311 | 3.5 | 8.7 | 0.00 | 0.01 | 0.01 | 66 | 1011.6 |
| 20260509181029 | 88 | 257 | 4.3 | 8.7 | 0.00 | 0.01 | 0.01 | 66 | 1011.7 |
| 20260509180253 | 86 | 338 | 3.5 | 9.6 | 0.00 | 0.01 | 0.01 | 71 | 1011.8 |
| 20260509175458 | 86 | 295 | 3.5 | 9.6 | 0.00 | 0.01 | 0.01 | 71 | 1011.6 |
| 20260509175008 | 87 | 298 | 3.5 | 7.0 | 0.00 | 0.01 | 0.01 | 72 | 1011.8 |
| 20260509173940 | 86 | 315 | 2.6 | 7.0 | 0.00 | 0.01 | 0.01 | 74 | 1012.0 |
| 20260509173436 | 86 | 323 | 2.6 | 7.8 | 0.00 | 0.01 | 0.01 | 73 | 1012.0 |
| 20260509172935 | 85 | 294 | 3.5 | 9.6 | 0.00 | 0.01 | 0.01 | 74 | 1012.1 |
| 20260509172435 | 85 | 11 | 3.5 | 9.6 | 0.00 | 0.01 | 0.01 | 76 | 1012.4 |
| 20260509171934 | 85 | 318 | 3.5 | 7.8 | 0.00 | 0.01 | 0.01 | 77 | 1012.4 |
| 20260509171430 | 84 | 344 | 3.5 | 7.8 | 0.00 | 0.01 | 0.01 | 76 | 1012.2 |
| 20260509170931 | 85 | 299 | 2.6 | 7.0 | 0.00 | 0.01 | 0.01 | 77 | 1012.3 |
| 20260509170432 | 84 | 325 | 2.6 | 7.0 | 0.00 | 0.01 | 0.01 | 75 | 1012.2 |
| 20260509165931 | 83 | 111 | 3.5 | 7.0 | 0.00 | 0.01 | 0.01 | 79 | 1012.1 |
| 20260509165430 | 83 | 253 | 3.5 | 7.0 | 0.00 | 0.01 | 0.01 | 77 | 1012.1 |
| 20260509164932 | 82 | 266 | 3.5 | 6.1 | 0.00 | 0.01 | 0.01 | 78 | 1012.2 |
| 20260509164430 | 82 | 236 | 3.5 | 6.1 | 0.00 | 0.01 | 0.01 | 79 | 1012.2 |
| 20260509164208 | 81 | 215 | 2.6 | 7.8 | 0.00 | 0.01 | 0.01 | 81 | 1012.3 |
| 20260509163406 | 81 | 216 | 2.6 | 7.8 | 0.00 | 0.01 | 0.01 | 81 | 1012.3 |
| 20260509163148 | 81 | 350 | 2.6 | 6.1 | 0.00 | 0.01 | 0.01 | 80 | 1012.2 |
| 20260509162637 | 81 | 303 | 1.7 | 6.1 | 0.00 | 0.01 | 0.01 | 81 | 1012.3 |
| 20260509161840 | 80 | 208 | 2.6 | 6.1 | 0.00 | 0.01 | 0.01 | 82 | 1012.2 |
| 20260509161622 | 79 | 152 | 3.5 | 7.8 | 0.00 | 0.01 | 0.01 | 84 | 1012.2 |
| 20260509160839 | 79 | 151 | 3.5 | 8.7 | 0.00 | 0.01 | 0.01 | 85 | 1012.2 |
| 20260509160622 | 79 | 217 | 3.5 | 8.7 | 0.00 | 0.01 | 0.01 | 86 | 1012.3 |
| 20260509155836 | 78 | 258 | 3.5 | 7.0 | 0.00 | 0.01 | 0.01 | 87 | 1012.1 |
| 20260509155332 | 78 | 191 | 4.3 | 9.6 | 0.00 | 0.01 | 0.01 | 87 | 1012.1 |
| 20260509155120 | 78 | 153 | 5.2 | 10.4 | 0.00 | 0.01 | 0.01 | 87 | 1012.1 |
| 20260509154328 | 78 | 197 | 5.2 | 10.4 | 0.00 | 0.01 | 0.01 | 87 | 1012.1 |
| 20260509153827 | 78 | 188 | 6.1 | 13.9 | 0.00 | 0.01 | 0.01 | 88 | 1012.2 |
| 20260509153325 | 77 | 165 | 7.0 | 13.9 | 0.00 | 0.01 | 0.01 | 89 | 1012.2 |
| 20260509152827 | 76 | 150 | 6.1 | 12.2 | 0.00 | 0.01 | 0.01 | 89 | 1012.0 |
| 20260509152325 | 76 | 197 | 5.2 | 13.0 | 0.00 | 0.01 | 0.01 | 90 | 1012.1 |
| 20260509151825 | 76 | 163 | 6.1 | 13.0 | 0.00 | 0.01 | 0.01 | 90 | 1012.1 |
| 20260509151324 | 76 | 150 | 5.2 | 12.2 | 0.00 | 0.01 | 0.01 | 90 | 1011.9 |
| 20260509151110 | 76 | 163 | 4.3 | 9.6 | 0.00 | 0.01 | 0.01 | 92 | 1011.9 |
| 20260509150321 | 76 | 141 | 5.2 | 9.6 | 0.00 | 0.01 | 0.01 | 92 | 1011.9 |
| 20260509145819 | 75 | 178 | 6.1 | 13.9 | 0.00 | 0.01 | 0.01 | 93 | 1011.9 |
| 20260509145557 | 75 | 149 | 6.1 | 13.9 | 0.00 | 0.01 | 0.01 | 93 | 1011.7 |
| 20260509144819 | 75 | 159 | 4.3 | 9.6 | 0.00 | 0.01 | 0.01 | 94 | 1011.8 |
| 20260509144320 | 74 | 152 | 4.3 | 10.4 | 0.00 | 0.01 | 0.01 | 95 | 1011.7 |
| 20260509143821 | 74 | 139 | 7.0 | 11.3 | 0.00 | 0.01 | 0.01 | 95 | 1011.7 |
| 20260509143320 | 74 | 130 | 5.2 | 11.3 | 0.00 | 0.01 | 0.01 | 95 | 1011.6 |
| 20260509142820 | 74 | 161 | 4.3 | 9.6 | 0.00 | 0.01 | 0.01 | 95 | 1011.4 |
| 20260509142320 | 74 | 162 | 5.2 | 11.3 | 0.00 | 0.01 | 0.01 | 95 | 1011.4 |
| 20260509141819 | 74 | 161 | 6.1 | 12.2 | 0.00 | 0.01 | 0.01 | 95 | 1011.2 |
| 20260509141317 | 74 | 148 | 7.0 | 12.2 | 0.00 | 0.01 | 0.01 | 95 | 1011.2 |
| 20260509140813 | 74 | 129 | 6.1 | 10.4 | 0.00 | 0.01 | 0.01 | 95 | 1011.2 |
| 20260509140313 | 74 | 150 | 6.1 | 10.4 | 0.00 | 0.01 | 0.01 | 95 | 1010.9 |
| 20260509140053 | 73 | 144 | 5.2 | 9.6 | 0.00 | 0.01 | 0.01 | 95 | 1010.7 |
| 20260509135311 | 73 | 161 | 5.2 | 9.6 | 0.00 | 0.01 | 0.01 | 95 | 1010.7 |
| 20260509134812 | 73 | 0 | 7.0 | 10.4 | 0.00 | 0.01 | 0.01 | 95 | 1010.9 |
| 20260509134333 | 73 | 150 | 5.2 | 10.4 | 0.00 | 0.01 | 0.01 | 95 | 1011.0 |
| 20260509134324 | 73 | 157 | 7.0 | 10.4 | 0.00 | 0.01 | 0.01 | 95 | 1011.0 |
| 20260509133310 | 73 | 136 | 3.5 | 7.8 | 0.00 | 0.01 | 0.01 | 95 | 1011.3 |
| 20260509132809 | 73 | 142 | 1.7 | 7.0 | 0.00 | 0.01 | 0.01 | 95 | 1011.4 |
| 20260509132309 | 73 | 173 | 0.9 | 3.5 | 0.00 | 0.01 | 0.01 | 95 | 1011.6 |
| 20260509131808 | 73 | 342 | 1.7 | 5.2 | 0.00 | 0.01 | 0.01 | 95 | 1011.8 |
| 20260509131309 | 73 | 345 | 2.6 | 5.2 | 0.00 | 0.01 | 0.01 | 95 | 1012.0 |
| 20260509130805 | 73 | 0 | 2.6 | 4.3 | 0.00 | 0.01 | 0.01 | 95 | 1012.0 |
| 20260509130303 | 73 | 321 | 1.7 | 3.5 | 0.00 | 0.01 | 0.01 | 95 | 1012.0 |
| 20260509125805 | 73 | 298 | 1.7 | 3.5 | 0.00 | 0.01 | 0.01 | 95 | 1011.8 |
| 20260509125301 | 72 | 22 | 0.9 | 2.6 | 0.00 | 0.01 | 0.01 | 95 | 1011.7 |
| 20260509124803 | 72 | 66 | 0.9 | 1.7 | 0.00 | 0.01 | 0.01 | 95 | 1011.7 |
| 20260509124300 | 72 | 66 | 0.9 | 2.6 | 0.00 | 0.01 | 0.01 | 95 | 1011.6 |
| 20260509123759 | 72 | 66 | 0.9 | 2.6 | 0.00 | 0.01 | 0.01 | 95 | 1011.5 |
| 20260509123253 | 72 | 66 | 0.9 | 2.6 | 0.00 | 0.01 | 0.01 | 94 | 1011.4 |
| 20260509122754 | 72 | 53 | 0.0 | 1.7 | 0.00 | 0.01 | 0.01 | 94 | 1011.4 |
| 20260509122252 | 72 | 52 | 0.9 | 2.6 | 0.00 | 0.01 | 0.01 | 94 | 1011.4 |
| 20260509121814 | 72 | 56 | 0.9 | 2.6 | 0.00 | 0.01 | 0.01 | 94 | 1011.2 |
| 20260509121805 | 72 | 52 | 0.9 | 2.6 | 0.00 | 0.01 | 0.01 | 94 | 1011.3 |
| 20260509120741 | 72 | 74 | 0.0 | 2.6 | 0.00 | 0.01 | 0.01 | 94 | 1011.2 |
| 20260509120242 | 72 | 74 | 0.0 | 0.9 | 0.00 | 0.01 | 0.01 | 94 | 1011.2 |
| 20260509115741 | 72 | 74 | 0.0 | 0.9 | 0.00 | 0.01 | 0.01 | 94 | 1011.3 |
| 20260509115234 | 72 | 74 | 0.0 | 0.9 | 0.00 | 0.01 | 0.01 | 94 | 1011.5 |
| 20260509114718 | 72 | 74 | 0.9 | 1.7 | 0.00 | 0.01 | 0.01 | 94 | 1011.6 |
| 20260509114214 | 72 | 74 | 0.9 | 1.7 | 0.00 | 0.01 | 0.01 | 94 | 1011.6 |
| 20260509113708 | 72 | 342 | 0.9 | 2.6 | 0.00 | 0.01 | 0.01 | 94 | 1011.6 |
| 20260509113207 | 72 | 342 | 0.0 | 2.6 | 0.00 | 0.01 | 0.01 | 94 | 1011.9 |
| 20260509112706 | 72 | 341 | 0.9 | 2.6 | 0.00 | 0.01 | 0.01 | 94 | 1012.0 |
| 20260509112207 | 72 | 340 | 1.7 | 3.5 | 0.00 | 0.01 | 0.01 | 94 | 1012.2 |
| 20260509111708 | 72 | 323 | 2.6 | 3.5 | 0.00 | 0.01 | 0.01 | 94 | 1012.4 |
| 20260509111437 | 72 | 331 | 1.7 | 3.5 | 0.00 | 0.01 | 0.01 | 94 | 1012.1 |
| 20260509110705 | 72 | 24 | 0.9 | 2.6 | 0.00 | 0.01 | 0.01 | 94 | 1012.2 |
| 20260509110206 | 73 | 25 | 0.0 | 1.7 | 0.00 | 0.01 | 0.01 | 94 | 1012.3 |
| 20260509105704 | 73 | 25 | 0.0 | 1.7 | 0.00 | 0.01 | 0.01 | 94 | 1012.4 |
| 20260509105440 | 73 | 25 | 0.0 | 0.0 | 0.00 | 0.01 | 0.01 | 94 | 1012.5 |
| 20260509104655 | 73 | 25 | 0.0 | 1.7 | 0.00 | 0.01 | 0.01 | 94 | 1012.6 |
| 20260509104131 | 73 | 25 | 0.9 | 3.5 | 0.00 | 0.01 | 0.01 | 94 | 1012.6 |
| 20260509103625 | 73 | 25 | 1.7 | 3.5 | 0.00 | 0.01 | 0.01 | 94 | 1012.5 |
| 20260509103125 | 73 | 24 | 1.7 | 3.5 | 0.00 | 0.01 | 0.01 | 93 | 1012.6 |
| 20260509102623 | 73 | 5 | 1.7 | 3.5 | 0.00 | 0.01 | 0.01 | 93 | 1012.6 |
| 20260509102121 | 73 | 9 | 1.7 | 3.5 | 0.00 | 0.01 | 0.01 | 93 | 1012.5 |
| 20260509101618 | 73 | 26 | 1.7 | 3.5 | 0.00 | 0.01 | 0.01 | 93 | 1012.3 |
| 20260509101117 | 72 | 37 | 1.7 | 3.5 | 0.00 | 0.01 | 0.01 | 93 | 1012.2 |
| 20260509100849 | 73 | 42 | 0.9 | 3.5 | 0.00 | 0.01 | 0.01 | 93 | 1011.9 |
| 20260509100113 | 73 | 91 | 0.9 | 2.6 | 0.00 | 0.01 | 0.01 | 93 | 1011.7 |
| 20260509095609 | 73 | 91 | 0.9 | 2.6 | 0.00 | 0.01 | 0.01 | 93 | 1011.5 |
| 20260509095109 | 73 | 91 | 1.7 | 2.6 | 0.00 | 0.01 | 0.01 | 93 | 1011.3 |
| 20260509094609 | 73 | 88 | 0.9 | 2.6 | 0.01 | 0.01 | 0.01 | 93 | 1011.3 |
| 20260509094108 | 73 | 79 | 0.9 | 2.6 | 0.01 | 0.01 | 0.01 | 93 | 1011.3 |
| 20260509093849 | 73 | 78 | 0.9 | 2.6 | 0.01 | 0.01 | 0.01 | 93 | 1011.2 |
| 20260509093340 | 73 | 78 | 0.9 | 3.5 | 0.01 | 0.01 | 0.01 | 93 | 1011.3 |
| 20260509092608 | 73 | 78 | 0.0 | 3.5 | 0.01 | 0.01 | 0.01 | 93 | 1011.2 |
| 20260509092105 | 73 | 60 | 0.0 | 0.0 | 0.01 | 0.01 | 0.01 | 93 | 1011.1 |
| 20260509091836 | 73 | 60 | 0.0 | 0.0 | 0.01 | 0.01 | 0.01 | 93 | 1011.1 |
| 20260509091103 | 73 | 60 | 0.0 | 0.0 | 0.01 | 0.01 | 0.01 | 93 | 1011.1 |
| 20260509090548 | 73 | 60 | 0.0 | 0.9 | 0.01 | 0.01 | 0.01 | 93 | 1011.2 |
| 20260509090029 | 73 | 60 | 0.0 | 0.9 | 0.01 | 0.01 | 0.01 | 93 | 1011.1 |
| 20260509085810 | 73 | 60 | 0.0 | 1.7 | 0.01 | 0.00 | 0.01 | 92 | 1011.1 |
| 20260509085026 | 73 | 60 | 0.0 | 1.7 | 0.01 | 0.00 | 0.01 | 92 | 1011.1 |
| 20260509084520 | 73 | 60 | 0.0 | 1.7 | 0.00 | 0.00 | 0.00 | 92 | 1011.3 |
| 20260509084018 | 73 | 59 | 0.0 | 3.5 | 0.00 | 0.00 | 0.00 | 92 | 1011.3 |
| 20260509083755 | 73 | 59 | 0.9 | 3.5 | 0.00 | 0.00 | 0.00 | 92 | 1011.3 |
| 20260509083010 | 73 | 57 | 0.0 | 3.5 | 0.00 | 0.00 | 0.00 | 92 | 1011.4 |
| 20260509082510 | 73 | 42 | 0.0 | 0.0 | 0.00 | 0.00 | 0.00 | 92 | 1011.6 |
| 20260509082009 | 73 | 42 | 0.0 | 0.0 | 0.00 | 0.00 | 0.00 | 92 | 1011.7 |
| 20260509081510 | 73 | 42 | 0.0 | 0.0 | 0.00 | 0.00 | 0.00 | 92 | 1011.7 |
| 20260509081008 | 73 | 42 | 0.9 | 1.7 | 0.00 | 0.00 | 0.00 | 92 | 1011.7 |
| 20260509080508 | 73 | 42 | 1.7 | 2.6 | 0.00 | 0.00 | 0.00 | 92 | 1011.7 |
| 20260509080011 | 73 | 42 | 1.7 | 3.5 | 0.00 | 0.00 | 0.00 | 92 | 1011.7 |
| 20260509075504 | 73 | 46 | 0.9 | 3.5 | 0.00 | 0.00 | 0.00 | 91 | 1011.6 |
| 20260509074951 | 73 | 111 | 0.9 | 2.6 | 0.00 | 0.00 | 0.00 | 91 | 1011.6 |
| 20260509074443 | 73 | 111 | 0.9 | 2.6 | 0.00 | 0.00 | 0.00 | 91 | 1011.5 |
| 20260509073941 | 73 | 111 | 0.9 | 2.6 | 0.00 | 0.00 | 0.00 | 91 | 1011.5 |
| 20260509073435 | 73 | 121 | 0.9 | 2.6 | 0.00 | 0.00 | 0.00 | 91 | 1011.5 |
| 20260509072936 | 74 | 121 | 0.9 | 2.6 | 0.00 | 0.00 | 0.00 | 91 | 1011.6 |